Wind_Speed
36 36 38 39 39 39 41 43 46 46 47 47 49 50 50 50 50 50 50 51 51 50 49 48 48 47 47 46 47 47 48 50 52 53 55 56 57 58 59 59 60 60 60 61
34 34 36 37 36 37 39 41 43 44 44 46 48 48 49 49 50 50 50 50 49 48 48 48 47 47 46 47 47 48 49 50 51 53 53 54 55 55 56 57 57 57 58 58
32 33 34 33 33 35 37 38 41 43 44 46 46 46 47 48 48 49 48 48 48 48 48 48 47 47 47 48 48 49 49 49 50 50 51 52 53 54 54 54 54 54 54 55
35 35 35 34 35 37 38 39 40 41 43 44 45 46 47 47 48 48 47 48 49 49 49 48 47 47 47 47 47 47 46 46 47 48 49 50 51 52 52 52 52 53 53 53
36 37 37 36 38 40 41 40 42 43 43 44 45 46 47 47 48 48 48 49 49 49 48 47 47 47 47 46 45 44 44 45 46 47 49 50 51 52 52 52 52 53 53 53
37 40 41 41 43 44 45 46 46 46 47 47 48 48 47 48 48 49 49 49 49 48 47 47 48 47 46 45 45 45 45 46 47 47 49 50 51 52 53 53 53 54 54 53
40 43 44 44 46 47 49 50 50 50 50 51 51 52 51 51 51 51 50 50 49 49 48 48 48 47 46 46 46 46 47 47 48 50 50 51 52 52 53 53 54 55 54 53
43 46 46 48 49 51 52 53 53 53 54 54 54 55 55 54 54 53 53 52 51 50 49 49 49 48 47 47 48 48 49 50 51 52 52 52 53 53 54 55 55 55 54 54
47 49 49 51 53 54 56 57 57 57 57 58 58 58 58 58 57 56 55 53 52 51 50 50 50 50 49 50 50 50 51 53 53 54 54 54 55 55 55 55 56 55 54 54
51 50 52 54 56 57 59 59 60 60 61 62 61 61 61 60 60 59 57 55 54 53 52 52 52 52 52 52 52 53 53 54 55 55 55 56 56 55 55 55 55 54 55 55
55 55 56 58 59 60 61 62 63 63 64 64 64 64 63 62 61 60 58 57 56 55 54 53 53 53 53 53 54 54 54 55 56 57 56 56 56 55 55 55 55 55 55 55
59 60 62 62 63 65 65 65 66 66 66 66 66 65 64 62 61 60 58 57 57 56 55 54 54 54 54 55 55 55 56 56 57 57 56 56 56 55 55 56 55 55 55 54
62 63 64 65 66 67 68 68 68 68 68 67 66 65 64 62 61 60 59 58 57 56 56 55 55 55 56 56 57 57 58 57 57 57 56 56 56 56 56 56 55 55 54 54
66 67 67 67 68 69 69 68 68 68 67 66 65 64 62 61 60 59 58 58 57 57 57 56 56 56 56 56 57 57 57 58 57 57 57 57 57 57 57 56 55 54 54 53
68 69 69 69 69 68 68 67 66 65 64 63 62 61 60 59 58 57 57 58 57 56 56 56 56 56 56 56 56 57 57 57 56 56 56 56 56 57 57 56 55 54 53 51
68 68 67 66 65 64 63 62 62 61 60 59 58 58 58 57 57 57 57 57 56 55 55 55 54 54 55 55 55 55 55 54 54 55 55 55 56 57 56 55 55 53 51 49
64 63 62 61 60 58 58 57 57 57 56 56 56 56 56 55 55 55 55 55 55 54 54 54 53 53 53 54 53 52 52 52 53 53 53 54 55 55 54 54 53 51 49 47
60 59 57 56 55 54 53 53 53 53 54 54 54 54 54 54 54 53 53 52 51 51 52 52 52 51 51 51 50 50 50 50 51 52 52 54 54 55 55 54 52 49 45 41
55 53 52 52 51 51 51 51 52 52 52 53 52 52 52 51 51 51 50 50 50 49 48 49 48 48 47 46 47 48 48 49 50 52 53 54 54 54 52 50 46 42 37 34
51 50 50 50 50 50 51 51 51 51 51 52 52 51 50 50 50 49 48 48 48 48 46 45 44 44 44 44 45 46 48 49 51 52 53 52 51 50 48 44 39 35 31 27
49 48 48 49 49 50 51 51 51 50 51 51 51 50 49 48 48 48 47 45 45 44 43 42 42 42 43 43 45 46 48 49 50 50 50 48 47 44 40 36 32 27 23 21
48 48 48 49 50 50 50 50 50 50 50 50 49 49 48 47 46 45 45 44 41 40 39 40 41 41 42 43 45 45 46 47 47 47 46 44 42 37 33 29 25 21 18 17
47 48 48 49 49 49 48 49 49 49 49 48 48 48 47 46 45 43 40 39 38 37 37 38 39 40 41 42 43 44 44 44 44 44 42 39 35 31 27 23 19 17 16 14
47 47 47 48 48 47 46 46 46 46 47 46 46 46 45 44 41 39 37 36 36 36 36 37 38 39 40 41 41 42 42 41 41 40 37 33 29 25 22 19 16 14 13 11
45 45 45 46 45 45 45 44 44 44 44 43 42 42 42 40 38 36 35 35 35 34 35 35 36 38 38 38 39 39 39 38 37 35 32 28 24 20 18 15 11 10 9 7
44 44 44 44 45 45 44 43 43 43 42 40 38 38 37 36 35 34 33 33 33 33 33 34 35 35 36 36 36 35 35 33 32 30 27 24 19 15 13 10 9 8 7 7
43 43 43 43 43 43 43 43 42 41 40 38 36 34 34 33 33 32 32 32 31 31 32 32 32 33 33 33 32 32 31 30 28 25 22 19 15 13 11 9 8 7 7 7
Wind_Direction
298 299 299 300 303 303 302 302 302 305 304 305 302 303 304 304 303 303 302 302 302 301 300 300 299 299 298 298 297 296 295 294 293 293 293 294 294 293 293 293 292 293 294 294
299 299 299 302 304 303 301 302 302 304 304 303 303 304 305 305 305 304 304 304 303 302 301 300 299 299 298 298 298 297 296 295 294 294 294 293 294 294 294 294 294 294 295 295
302 302 304 306 308 305 304 304 304 304 305 305 305 306 306 306 306 306 305 304 302 300 300 299 298 298 298 298 298 297 296 296 296 296 295 295 296 296 295 295 295 296 297 297
304 304 305 310 308 307 307 308 307 307 307 307 307 307 307 307 307 306 306 304 303 301 300 299 298 298 298 299 298 297 296 296 297 297 297 297 297 297 296 296 296 296 297 297
302 303 305 308 307 307 307 308 307 308 309 309 309 309 309 308 308 308 306 306 304 303 301 299 298 298 298 298 298 297 297 298 298 298 298 298 298 297 296 296 297 297 297 296
300 302 305 308 306 306 306 305 307 308 309 309 309 308 308 308 308 306 306 305 304 303 301 300 299 299 298 297 297 297 298 300 300 301 300 299 299 298 297 297 297 297 297 296
299 300 303 303 303 303 304 306 306 307 308 308 308 307 307 307 306 305 305 303 302 302 301 301 300 299 298 297 297 298 299 300 301 301 302 301 300 299 298 298 298 298 297 297
298 299 301 300 300 301 302 303 304 304 305 305 305 305 305 304 304 303 302 301 301 300 300 300 300 299 298 298 298 298 299 300 300 301 301 301 301 300 299 298 299 298 298 297
296 297 298 297 297 298 299 300 301 301 302 302 302 303 302 302 301 301 300 300 299 299 299 299 299 298 297 298 298 299 300 300 300 301 301 301 301 300 299 299 299 299 298 298
293 293 293 293 294 295 296 297 298 298 299 299 299 300 300 299 300 300 299 299 298 297 297 297 297 297 297 297 298 299 300 301 301 301 301 301 301 301 300 300 299 299 299 298
290 291 291 292 293 293 294 295 295 296 296 297 297 298 298 298 298 298 298 298 297 297 297 297 297 297 298 298 299 299 300 301 301 301 301 301 301 302 301 301 301 300 300 299
291 291 291 292 292 293 293 294 294 294 295 295 296 296 297 297 297 297 297 297 297 297 297 297 298 298 298 299 300 300 301 301 301 301 301 301 301 302 302 302 302 301 300 300
289 290 290 291 291 291 292 293 293 293 294 294 295 295 296 296 296 297 297 297 297 297 297 298 298 299 299 300 301 301 302 302 302 302 302 302 302 302 302 302 302 301 301 300
288 289 289 290 291 291 292 292 293 293 293 293 294 295 295 295 296 297 297 297 298 298 299 299 299 300 301 301 302 302 303 303 303 302 302 302 303 303 303 303 302 302 301 300
289 290 291 291 291 292 292 292 292 293 293 293 294 295 295 296 297 297 298 298 299 299 299 299 300 301 301 302 302 303 303 303 304 304 304 304 304 304 304 304 303 302 301 300
289 290 291 292 292 292 292 292 292 292 293 294 294 295 296 297 297 298 298 299 299 299 299 300 300 301 301 302 303 304 305 305 305 306 306 306 306 306 306 304 303 302 300 299
290 291 292 292 292 292 292 292 293 293 294 294 295 296 297 297 298 298 298 299 299 300 300 301 301 302 303 304 305 306 306 307 307 308 308 309 309 308 307 306 305 303 300 298
291 292 293 293 293 293 293 293 294 294 295 295 296 297 298 298 298 299 299 299 300 300 301 303 304 304 305 306 307 308 308 309 310 311 311 311 310 309 308 308 306 304 301 298
292 292 292 293 293 293 294 294 294 295 295 296 297 298 298 299 299 300 301 301 302 302 303 304 305 307 307 307 309 310 311 312 313 313 313 312 312 311 310 310 308 305 301 298
291 292 292 293 293 294 294 295 296 297 297 298 299 299 299 299 300 301 302 303 303 303 304 305 306 307 308 310 311 312 313 314 315 315 315 314 314 313 313 311 309 306 303 299
291 292 293 293 294 295 296 296 297 297 298 299 299 300 300 300 301 302 303 303 303 304 305 306 307 309 310 312 314 315 316 317 317 318 318 317 316 316 316 315 313 309 305 301
292 293 294 295 295 296 297 297 297 297 298 299 300 300 300 300 301 303 304 304 305 305 306 308 310 311 313 315 316 317 318 319 320 321 321 320 320 319 318 318 317 312 306 303
292 293 294 295 296 298 298 297 297 298 299 300 300 300 300 300 302 303 304 304 305 306 308 310 312 314 316 318 319 320 321 322 323 324 324 324 323 323 322 320 317 313 309 306
292 293 295 296 298 299 300 300 300 301 301 302 302 301 301 301 302 303 305 306 307 308 310 312 314 316 318 320 321 323 324 324 326 327 327 327 327 326 325 323 319 316 315 314
293 295 296 298 300 301 302 302 303 303 303 304 304 303 302 302 302 303 305 307 308 310 312 314 316 318 320 322 323 325 327 328 330 332 332 332 332 331 331 332 332 331 330 331
294 296 298 299 301 302 303 304 304 305 305 305 304 303 302 303 304 305 306 308 310 311 313 315 317 320 322 324 325 327 330 333 335 336 337 340 341 342 345 348 350 350 353 353
294 296 298 300 301 302 303 304 305 305 305 305 304 304 303 304 305 306 306 308 309 311 313 316 319 322 324 325 327 329 332 335 338 340 342 347 351 354 357 1 6 11 12 14
Height
5771 5769 5764 5761 5759 5755 5749 5744 5738 5735 5729 5725 5718 5712 5708 5703 5698 5693 5688 5683 5678 5673 5668 5663 5658 5653 5647 5642 5636 5631 5625 5620 5614 5608 5601 5595 5589 5582 5575 5569 5562 5556 5549 5543
5763 5760 5755 5752 5750 5745 5739 5734 5729 5724 5719 5714 5707 5702 5697 5691 5685 5680 5675 5670 5665 5659 5654 5648 5643 5638 5633 5627 5622 5616 5610 5604 5598 5592 5586 5580 5573 5566 5560 5553 5547 5540 5534 5527
5754 5750 5746 5744 5741 5735 5730 5725 5720 5714 5710 5703 5698 5692 5686 5680 5674 5668 5663 5657 5651 5646 5640 5635 5629 5624 5618 5613 5607 5601 5596 5590 5583 5577 5571 5564 5558 5551 5544 5538 5532 5525 5519 5512
5743 5741 5737 5737 5730 5725 5720 5716 5711 5705 5699 5693 5688 5682 5676 5669 5663 5657 5651 5645 5638 5632 5627 5621 5615 5610 5605 5599 5593 5587 5581 5575 5569 5562 5556 5550 5543 5536 5530 5523 5517 5511 5505 5498
5734 5730 5728 5727 5720 5714 5709 5706 5700 5695 5689 5684 5678 5672 5666 5658 5652 5645 5639 5632 5626 5619 5613 5608 5602 5597 5591 5586 5580 5574 5568 5562 5555 5548 5542 5535 5529 5522 5515 5509 5503 5497 5490 5483
5725 5719 5717 5716 5709 5703 5699 5695 5690 5684 5678 5673 5667 5661 5656 5648 5641 5634 5627 5621 5614 5607 5601 5595 5589 5583 5578 5572 5566 5561 5555 5548 5541 5534 5528 5521 5514 5507 5501 5495 5489 5482 5476 5469
5715 5709 5707 5704 5698 5692 5688 5684 5678 5672 5666 5661 5654 5648 5643 5636 5629 5622 5615 5608 5602 5595 5589 5582 5577 5571 5565 5559 5553 5548 5542 5535 5528 5521 5513 5507 5500 5493 5486 5480 5474 5467 5461 5454
5705 5700 5698 5691 5685 5680 5676 5670 5665 5660 5654 5648 5642 5635 5629 5623 5616 5609 5602 5596 5589 5583 5577 5570 5563 5558 5552 5546 5541 5534 5528 5521 5514 5507 5500 5492 5485 5478 5471 5465 5458 5452 5445 5439
5695 5692 5685 5678 5672 5667 5662 5657 5652 5646 5641 5634 5629 5623 5616 5610 5603 5596 5589 5583 5576 5570 5564 5557 5550 5544 5539 5533 5527 5521 5514 5507 5500 5493 5485 5478 5471 5464 5456 5449 5443 5436 5430 5423
5681 5679 5672 5665 5659 5654 5648 5643 5638 5632 5626 5620 5614 5608 5602 5595 5588 5582 5576 5569 5563 5556 5550 5544 5537 5530 5524 5518 5512 5506 5499 5492 5485 5478 5471 5463 5455 5448 5441 5434 5427 5421 5414 5408
5666 5663 5658 5653 5645 5640 5635 5629 5623 5617 5611 5604 5599 5593 5586 5580 5574 5567 5561 5555 5549 5542 5536 5530 5523 5516 5509 5504 5498 5491 5484 5477 5470 5463 5455 5448 5441 5433 5426 5419 5411 5405 5398 5392
5651 5647 5641 5638 5630 5624 5619 5613 5607 5601 5595 5588 5582 5576 5570 5564 5558 5552 5546 5540 5534 5528 5521 5515 5509 5502 5495 5489 5482 5476 5469 5462 5455 5447 5440 5433 5426 5419 5411 5404 5396 5389 5382 5376
5634 5630 5624 5620 5614 5608 5602 5596 5590 5584 5578 5572 5565 5559 5554 5548 5542 5536 5530 5524 5518 5512 5506 5500 5494 5488 5481 5474 5467 5460 5453 5446 5439 5432 5424 5417 5410 5403 5397 5389 5381 5374 5367 5361
5616 5612 5608 5603 5597 5591 5584 5579 5573 5566 5560 5554 5549 5543 5537 5532 5527 5521 5515 5509 5503 5497 5490 5484 5479 5472 5465 5459 5452 5445 5438 5430 5423 5416 5409 5402 5394 5387 5380 5373 5366 5359 5352 5345
5597 5592 5589 5584 5578 5572 5567 5561 5555 5549 5544 5538 5532 5527 5521 5516 5512 5506 5499 5493 5488 5482 5475 5469 5464 5457 5450 5444 5437 5430 5423 5415 5408 5401 5393 5386 5379 5371 5364 5357 5350 5343 5336 5330
5580 5574 5569 5565 5560 5555 5549 5544 5539 5534 5528 5523 5518 5512 5507 5501 5496 5491 5484 5478 5472 5467 5460 5454 5449 5442 5436 5429 5423 5416 5409 5401 5393 5386 5379 5371 5363 5356 5348 5341 5333 5327 5321 5315
5563 5558 5553 5548 5543 5538 5533 5528 5523 5518 5513 5508 5503 5498 5492 5487 5482 5476 5470 5464 5457 5451 5445 5439 5434 5428 5421 5414 5408 5402 5395 5388 5380 5372 5364 5356 5348 5340 5332 5325 5318 5311 5305 5300
5545 5541 5537 5532 5527 5523 5518 5513 5508 5503 5498 5493 5489 5483 5478 5472 5467 5462 5456 5450 5444 5438 5432 5425 5420 5414 5407 5401 5394 5388 5381 5374 5367 5358 5350 5342 5334 5326 5317 5309 5302 5296 5290 5286
5531 5527 5522 5517 5513 5508 5503 5498 5493 5489 5484 5479 5474 5469 5464 5458 5452 5447 5442 5436 5430 5425 5420 5413 5407 5401 5395 5389 5382 5376 5369 5362 5354 5346 5337 5328 5320 5311 5302 5294 5287 5281 5277 5274
5517 5513 5508 5504 5499 5494 5489 5485 5480 5476 5470 5465 5460 5455 5450 5445 5439 5434 5429 5424 5417 5412 5407 5401 5396 5390 5384 5378 5371 5365 5357 5350 5341 5333 5324 5315 5306 5297 5289 5281 5275 5270 5267 5264
5503 5499 5495 5491 5486 5482 5476 5471 5466 5462 5457 5452 5446 5441 5437 5432 5427 5421 5416 5412 5407 5400 5396 5390 5385 5379 5374 5367 5361 5354 5346 5338 5329 5320 5311 5302 5294 5285 5278 5272 5266 5262 5259 5258
5490 5486 5482 5477 5473 5469 5464 5458 5453 5448 5444 5439 5434 5429 5424 5419 5415 5410 5405 5400 5395 5390 5385 5380 5375 5369 5363 5357 5350 5343 5335 5327 5318 5309 5300 5292 5284 5276 5270 5265 5260 5257 5255 5254
5476 5472 5468 5464 5459 5455 5451 5445 5440 5436 5431 5426 5421 5416 5411 5407 5403 5398 5395 5390 5385 5381 5376 5371 5366 5360 5354 5347 5340 5333 5325 5317 5309 5300 5291 5283 5276 5269 5264 5260 5257 5254 5252 5251
5463 5459 5455 5450 5446 5442 5437 5433 5428 5423 5418 5414 5409 5404 5399 5395 5392 5388 5383 5380 5376 5371 5367 5362 5357 5351 5345 5338 5332 5324 5316 5308 5300 5292 5284 5277 5270 5264 5260 5256 5254 5252 5250 5249
5450 5446 5442 5438 5433 5429 5425 5420 5416 5412 5407 5403 5398 5393 5388 5384 5381 5378 5374 5371 5367 5362 5358 5354 5349 5343 5337 5330 5324 5317 5309 5301 5293 5286 5279 5272 5266 5261 5258 5255 5253 5251 5250 5249
5437 5433 5430 5426 5421 5416 5412 5408 5404 5400 5395 5391 5388 5383 5379 5375 5372 5368 5365 5362 5358 5354 5350 5346 5341 5336 5330 5323 5317 5310 5303 5296 5289 5282 5275 5269 5264 5261 5258 5255 5253 5252 5251 5249
5425 5421 5418 5414 5410 5405 5401 5396 5392 5388 5384 5380 5377 5373 5369 5366 5363 5360 5357 5353 5350 5346 5342 5338 5334 5329 5323 5317 5311 5306 5299 5293 5286 5280 5274 5269 5265 5262 5260 5257 5256 5254 5252 5251